FW9892 Weather Reports


time (UTC)temp
F
wind
direction
speed
knots
gust
knots
rain 1hr
in
rain 24hr
in
rain mn
in
humidity
%
barometer
mb
20260507064557 50 0 0.0 0.0 0.00 0.03 0.00 84 1015.0
20260507063054 50 0 0.0 0.0 0.00 0.03 0.00 84 1015.0
20260507061553 49 0 0.0 0.0 0.00 0.03 0.00 84 1014.8
20260507060050 49 0 0.0 0.0 0.00 0.03 0.00 86 1014.7
20260507054555 48 0 0.0 0.0 0.00 0.05 0.00 88 1014.6
20260507053049 48 0 0.0 0.0 0.00 0.05 0.00 89 1014.3
20260507051549 48 0 0.0 0.0 0.00 0.05 0.00 89 1014.4
20260507050055 48 0 0.0 0.0 0.00 0.05 0.00 90 1014.2
20260507044618 48 0 0.0 0.0 0.00 0.07 0.00 90 1014.2
20260507043053 48 0 0.0 0.0 0.00 0.07 0.00 90 1013.9
20260507041559 48 0 0.0 0.0 0.00 0.07 0.00 89 1013.8
20260507040104 48 0 0.0 0.0 0.00 0.07 0.00 89 1013.7
20260507034558 47 0 0.0 0.0 0.00 0.08 0.00 87 1013.7
20260507033049 47 0 0.0 0.0 0.00 0.08 0.00 87 1013.6
20260507031548 48 0 0.0 0.0 0.00 0.08 0.00 88 1013.6
20260507030053 48 0 0.0 0.0 0.00 0.08 0.00 89 1013.5
20260507024548 48 0 0.0 0.0 0.00 0.11 0.00 88 1013.4
20260507023051 48 0 0.0 0.0 0.00 0.11 0.00 89 1013.4
20260507021550 48 0 0.0 0.0 0.00 0.11 0.00 89 1013.3
20260507014601 48 0 0.0 0.0 0.00 0.16 0.00 88 1013.1
20260507013049 48 0 0.0 0.0 0.00 0.16 0.00 88 1013.2
20260507011601 48 0 0.0 0.0 0.00 0.16 0.00 88 1013.1
20260507010048 48 0 0.0 0.0 0.00 0.16 0.00 87 1013.2
20260507004550 48 0 0.0 0.0 0.00 0.22 0.00 87 1013.2
20260507003050 48 0 0.0 0.0 0.00 0.22 0.00 87 1013.1
20260507001612 48 0 0.0 0.0 0.00 0.22 0.00 88 1013.0
20260507000057 48 0 0.0 0.0 0.00 0.22 0.00 89 1013.0
20260506234548 48 0 0.0 0.0 0.00 0.26 0.00 89 1013.0
20260506233059 48 0 0.0 0.0 0.00 0.26 0.00 89 1012.9
20260506231557 48 0 0.0 0.0 0.00 0.26 0.00 89 1012.8
20260506230053 48 0 0.0 0.0 0.00 0.26 0.00 89 1012.7
20260506224557 48 0 0.0 0.0 0.00 0.32 0.00 89 1012.5
20260506223059 48 0 0.0 0.0 0.00 0.32 0.00 89 1012.4
20260506221553 48 0 0.0 0.0 0.00 0.32 0.00 89 1012.4
20260506220059 48 0 0.0 0.0 0.00 0.32 0.00 89 1012.1
20260506214548 48 0 0.0 0.0 0.00 0.40 0.32 89 1012.2
20260506213100 48 0 0.0 0.0 0.00 0.40 0.32 88 1012.0
20260506211552 48 0 0.0 4.3 0.00 0.40 0.32 88 1012.0
20260506210114 48 0 0.0 0.0 0.00 0.40 0.32 87 1011.9
20260506204556 48 0 0.0 3.5 0.00 0.48 0.32 86 1011.8
20260506203139 48 0 0.0 3.5 0.00 0.48 0.32 86 1011.7
20260506201554 48 0 0.0 1.7 0.00 0.48 0.32 86 1011.4
20260506200054 48 0 0.0 0.0 0.00 0.48 0.32 83 1011.5
20260506194556 48 0 0.0 0.0 0.00 0.57 0.32 82 1011.2
20260506193052 49 0 0.0 3.5 0.00 0.57 0.32 81 1011.1
20260506191605 49 0 0.0 4.3 0.00 0.57 0.32 80 1010.9
20260506190054 50 0 0.0 4.3 0.00 0.57 0.32 79 1010.7
20260506184559 51 360 0.0 4.3 0.00 0.59 0.32 77 1010.6
20260506183057 52 0 0.0 7.0 0.00 0.59 0.32 74 1010.5
20260506181613 53 0 0.0 3.5 0.00 0.59 0.32 73 1010.2
20260506174607 53 360 0.0 4.3 0.00 0.59 0.32 73 1009.8
20260506173055 54 0 0.0 7.0 0.00 0.59 0.32 74 1009.6
20260506171606 54 360 2.6 7.8 0.00 0.59 0.32 74 1009.6
20260506170054 55 360 0.0 7.0 0.00 0.59 0.32 75 1009.3
20260506164558 56 360 0.9 6.1 0.00 0.59 0.32 72 1009.2
20260506163121 56 0 0.0 2.6 0.00 0.59 0.32 72 1009.2
20260506161554 56 0 0.0 3.5 0.00 0.59 0.32 73 1009.1
20260506160056 56 0 0.0 4.3 0.00 0.59 0.32 73 1009.1
20260506154556 56 0 0.0 0.0 0.00 0.59 0.32 76 1009.1
20260506153055 56 0 0.0 0.0 0.00 0.59 0.32 76 1009.1
20260506151556 56 0 0.0 0.9 0.00 0.59 0.32 75 1009.0
20260506150052 56 0 0.0 0.9 0.00 0.59 0.32 76 1009.0
20260506144556 56 0 0.0 0.0 0.00 0.59 0.32 76 1008.8
20260506143057 55 0 0.0 7.0 0.00 0.59 0.32 76 1008.8
20260506141549 56 0 0.0 3.5 0.00 0.59 0.32 77 1008.9
20260506134600 55 0 0.0 0.0 0.00 0.59 0.32 83 1009.0
20260506133056 54 0 0.0 0.9 0.00 0.59 0.32 81 1009.1
20260506131606 54 0 0.0 3.5 0.00 0.59 0.32 82 1009.1
20260506130054 54 0 0.0 0.0 0.00 0.59 0.32 85 1008.9
20260506124548 54 0 0.0 3.5 0.00 0.59 0.32 87 1008.9
20260506123102 53 0 0.0 3.5 0.00 0.59 0.32 86 1008.7
20260506121604 54 5 0.0 3.5 0.00 0.59 0.32 84 1008.6
20260506120050 53 0 0.0 3.5 0.00 0.59 0.32 90 1008.7
20260506114550 52 0 0.0 3.5 0.00 0.59 0.32 87 1008.6
20260506113050 53 0 0.0 3.5 0.00 0.59 0.32 88 1008.6
20260506111552 52 0 0.0 7.0 0.00 0.59 0.32 91 1008.6
20260506104551 51 5 0.0 4.3 0.00 0.59 0.32 94 1008.8
20260506103048 51 0 0.0 4.3 0.00 0.59 0.32 95 1008.9
20260506101618 50 15 0.9 7.0 0.00 0.59 0.32 94 1008.9
20260506100051 50 0 0.0 7.8 0.00 0.59 0.32 95 1008.6
20260506094557 49 0 0.9 5.2 0.00 0.60 0.32 95 1008.6
20260506093051 49 0 0.9 7.0 0.00 0.60 0.32 95 1008.4
20260506091553 49 0 0.0 4.3 0.00 0.60 0.32 95 1008.3
20260506090104 48 360 0.9 7.8 0.00 0.60 0.32 95 1008.2
20260506084603 48 0 0.9 7.0 0.00 0.60 0.32 95 1008.1
20260506083054 48 0 1.7 8.7 0.00 0.59 0.31 95 1007.9
20260506081557 48 0 2.6 8.7 0.00 0.59 0.31 95 1007.9
20260506073056 47 348 1.7 7.8 0.00 0.59 0.30 95 1007.6
20260506071553 47 0 0.9 5.2 0.01 0.59 0.30 95 1007.6